Voltar ao catálogo

COSMOS 1375 DEB

AtivoLEO
NORAD 27803·DEBRIS·🇷🇺 Russia

Lançado Jun 6, 1982 de Plesetsk Cosmodrome

Loading…

Próximas Passagens (próximas 24 horas)

TLE

AtualizadoSource: Space-Track

Época: Sep 14, 2026, 01:20 UTC

1 27803U 82055BQ  26257.05622137  .00000880  00000-0  59899-3 0  9997
2 27803  65.8121 240.9565 0023128   1.2745  61.8179 14.04953880804502

Acompanhe COSMOS 1375 DEB em tempo real com AllMySat

Download on the App Store